User: anonymous   Login
Location: Unspecified
(0.0000°N, 0.0000°E)
Time: 04:51:11
(UTC+00:00)
Language:

IBEX - Orbit

View from above orbital plane
View from above orbital plane
View from above satellite
View from above satellite

Ground track
Ground track

The orbit data is extracted from the following two-line orbital elements,

1 33401U 08051A   17162.83686537 -.00002739 +00000-0 +00000-0 0  9990
2 33401 026.0179 093.9503 6586277 022.5731 356.6008 00.10313265003639
Epoch (UTC): 11 June 2017 20:05:05
Eccentricity: 0.6586277
inclination: 26.0179°
perigee height: 59190 km
apogee height: 312199 km
right ascension of ascending node: 93.9503°
argument of perigee: 22.5731°
revolutions per day: 0.10313265
mean anomaly at epoch: 356.6008°
orbit number at epoch: 363

The dashed part of the orbit path shows where the satellite is in the earth's shadow,  

DLR